Location: Unspecified
(54.1780°N, 0.0000°E)
Time: 16:48:43
(UTC+00:00)

S-56A Canister/Altair - Pass Details

Date: 22 June 2019
Orbit: 632 x 2500 km, 38.9° (Epoch: 20 July)

Event Time Altitude Azimuth Distance (km) Brightness Sun altitude
Rises 17:39:53 0° 242° (WSW) 4,555 12.3 22.0°
Reaches altitude 10° 17:44:09 10° 228° (SW) 3,212 11.3 21.4°
Maximum altitude 17:49:27 21° 184° (S) 2,095 9.8 20.6°
Drops below altitude 10° 17:53:37 10° 137° (SE) 2,447 9.7 20.0°
Sets 17:56:21 0° 120° (ESE) 3,196 10.1 19.6°
